User: anonymous   Login
Location: Melbourne
(37.8170°S, 144.9670°E)
Time: 08:05:51
(UTC+11:00)
Language:

CZ-3 R/B - Orbit

View from above orbital plane
View from above orbital plane
View from above satellite
View from above satellite

Ground track
Ground track

The orbit data is extracted from the following two-line orbital elements,

1 29517U 06048B   14325.81723331  .00101182  00000-0  20960-2 0  5308
2 29517 028.5412 059.8828 5218906 223.4215 198.3960 05.37943564108122
Epoch (UTC): 21 November 2014 19:36:48
Eccentricity: 0.5218906
inclination: 28.5412°
perigee height: 200 km
apogee height: 14561 km
right ascension of ascending node: 59.8828°
argument of perigee: 223.4215°
revolutions per day: 5.37943564
mean anomaly at epoch: 198.3960°
orbit number at epoch: 10812

The dashed part of the orbit path shows where the satellite is in the earth's shadow,  

DLR